Fulton, NY

8:45 PM EDT on October 22, 2019 (GMT -0400)
Oswego County

Weather History for KFZY - May, 2019

Change the Weather History Date:

Saturday, May 11, 2019

  Actual Average (KSYR) Record (KSYR)
Temperature  
Mean Temperature 50 °F -  
Max Temperature 57 °F 68 °F 90 °F (1911)
Min Temperature 43 °F 44 °F 29 °F (1949)
Degree Days  
Heating Degree Days 15    
Moisture  
Dew Point 35 °F    
Average Humidity 60    
Maximum Humidity 71    
Minimum Humidity 40    
Precipitation  
Precipitation 0.00 in - - ()
Sea Level Pressure  
Sea Level Pressure 30.11 in    
Wind  
Wind Speed 8 mph (NW)    
Max Wind Speed 13 mph    
Max Gust Speed -    
Visibility 10 miles    
Events      
Averages and records for this station are not official NWS values.
T = Trace of Precipitation, MM = Missing Value Source: NWS Daily Summary

Daily Weather History Graph

Daily Weather History Graph

Search for Another Location

Airport or City:

Astronomy

May. 11, 2019 Rise Set
Actual Time 5:46 AM EDT 8:18 PM EDT
Civil Twilight 5:13 AM EDT 8:51 PM EDT
Nautical Twilight 4:33 AM EDT 9:31 PM EDT
Astronomical Twilight 3:47 AM EDT 10:17 PM EDT
Moon 11:52 AM EDT (5/11) 1:58 AM EDT (5/11)
Length of Visible Light 15h 37m
Length of Day
14h 32m
Waxing Crescent, 46% of the Moon is Illuminated
May 11
Waxing Crescent
May 11
First Quarter
May 18
Full
May 26
Last Quarter
Jun 3
New

Hourly Weather History & Observations

Time (EDT) Temp. Windchill Dew Point Humidity Pressure Visibility Wind Dir Wind Speed Gust Speed Precip Events Conditions
12:54 AM 45.0 °F 39.3 °F 34.0 °F 65% 30.09 in 10.0 mi WNW 11.5 mph - N/A   Overcast
1:54 AM 44.1 °F 40.1 °F 35.1 °F 71% 30.09 in 10.0 mi West 6.9 mph - N/A   Overcast
2:54 AM 44.1 °F 39.5 °F 34.0 °F 68% 30.11 in 10.0 mi WNW 8.1 mph - N/A   Overcast
3:54 AM 44.1 °F 39.0 °F 34.0 °F 68% 30.11 in 10.0 mi WNW 9.2 mph - N/A   Overcast
4:10 AM 45.0 °F 40.6 °F 33.1 °F 63% 30.10 in 10.0 mi WNW 8.1 mph - N/A   Overcast
4:54 AM 44.1 °F 37.7 °F 33.1 °F 65% 30.10 in 10.0 mi NW 12.7 mph - N/A   Overcast
5:08 AM 44.1 °F 39.0 °F 34.0 °F 68% 30.10 in 10.0 mi WNW 9.2 mph - N/A   Overcast
5:54 AM 44.1 °F 40.1 °F 34.0 °F 68% 30.12 in 10.0 mi WNW 6.9 mph - N/A   Overcast
6:54 AM 43.0 °F 38.8 °F 34.0 °F 71% 30.13 in 10.0 mi West 6.9 mph - N/A   Clear
7:54 AM 46.0 °F 41.9 °F 35.1 °F 66% 30.14 in 10.0 mi WNW 8.1 mph - N/A   Clear
8:54 AM 48.0 °F - 36.0 °F 63% 30.16 in 10.0 mi WNW 6.9 mph - N/A   Mostly Cloudy
9:54 AM 48.0 °F - 36.0 °F 63% 30.16 in 10.0 mi NW 9.2 mph - N/A   Mostly Cloudy
10:54 AM 50.0 °F - 37.0 °F 61% 30.17 in 10.0 mi Variable 6.9 mph - N/A   Overcast
11:45 AM 51.1 °F - 36.0 °F 56% 30.15 in 10.0 mi NNW 8.1 mph - N/A   Mostly Cloudy
11:54 AM 52.0 °F - 37.0 °F 57% 30.16 in 10.0 mi NNW 6.9 mph - N/A   Mostly Cloudy
12:54 PM 55.0 °F - 36.0 °F 49% 30.15 in 10.0 mi North - - N/A   Scattered Clouds
1:54 PM 55.0 °F - 35.1 °F 47% 30.14 in 10.0 mi WNW 9.2 mph - N/A   Partly Cloudy
2:54 PM 55.0 °F - 33.1 °F 43% 30.12 in 10.0 mi WNW 3.5 mph - N/A   Partly Cloudy
3:54 PM 57.0 °F - 33.1 °F 40% 30.10 in 10.0 mi NW 9.2 mph - N/A   Clear
4:54 PM 53.1 °F - 33.1 °F 47% 30.11 in 10.0 mi WNW 10.4 mph - N/A   Clear
5:54 PM 52.0 °F - 34.0 °F 50% 30.09 in 10.0 mi NNW 6.9 mph - N/A   Clear
6:54 PM 50.0 °F - 34.0 °F 54% 30.09 in 10.0 mi NNW 5.8 mph - N/A   Clear
7:54 PM 48.9 °F - 34.0 °F 56% 30.10 in 10.0 mi NNW 4.6 mph - N/A   Clear
8:54 PM 48.0 °F - 34.0 °F 58% 30.08 in 10.0 mi Calm Calm - N/A   Clear
9:54 PM 46.0 °F 43.9 °F 37.0 °F 71% 30.07 in 10.0 mi NNE 4.6 mph - N/A   Clear
10:54 PM 45.0 °F 41.8 °F 35.1 °F 68% 30.06 in 10.0 mi NNE 5.8 mph - N/A   Clear
11:54 PM 46.0 °F 43.1 °F 36.0 °F 68% 30.06 in 10.0 mi NE 5.8 mph - N/A   Clear